[[{"header":{"parameterUnit":"m.s-1","parameterCategory":1,"la1":30.2992,"la2":30.254,"lo1":-89.0895,"lo2":-89.0443,"dy":0.0025,"dx":0.0025,"nx":19,"ny":19,"refTime":"2026-04-16T03:00:00:Z","depth":0,"parameterNumber":2,"parameterNumberName":"U-component_of_WINDS"},"data":[0,0,0,1.5809,1.5811,1.5899,1.59,1.6007,1.6008,0,0,0,0,0,0,0,0,0,0,0,1.5782,1.5782,1.5809,1.5811,1.5899,1.59,1.6007,1.6008,0,0,0,0,0,0,0,0,0,0,0,1.5781,1.5782,1.5783,1.5811,1.5899,1.59,1.6006,1.5941,0,0,0,0,0,0,0,0,0,0,1.5857,1.583,1.5782,1.5783,1.5812,1.5899,1.59,1.5938,1.5945,1.5965,0,1.5984,0,1.5997,1.6015,1.6015,0,0,0,1.5812,1.5824,1.585,1.5783,1.5813,1.5899,1.586,1.5942,1.595,1.5974,1.5985,1.5989,1.5999,1.6015,1.6016,1.6128,1.6129,0,0,1.5807,1.5796,1.5844,1.5855,1.5843,1.5857,1.5862,1.5947,1.5958,1.5986,1.5992,1.6001,1.6016,1.6017,1.6128,1.6128,0,0,0,1.5793,1.5793,1.5816,1.585,1.5867,1.5859,1.5866,1.5954,1.5963,1.5993,1.6002,1.6017,1.6018,1.6127,1.6128,1.6141,0,0,0,1.579,1.5785,1.5814,1.5808,1.5865,1.5912,1.5871,1.5957,1.5967,1.6002,1.6017,1.6019,1.6127,1.6128,1.6139,1.6148,0,0,0,1.5776,1.5783,1.5795,1.5808,1.5845,1.5911,1.5924,1.5959,1.5972,1.6015,1.6019,1.6127,1.6128,1.6138,1.6146,1.6172,0,0,0,1.5759,1.5807,1.5795,1.5852,1.5845,1.5919,1.5924,1.598,1.6018,1.6017,1.6127,1.6128,1.6138,1.6145,1.6171,1.6192,1.62,0,0,1.5813,1.5813,1.5847,1.584,1.5913,1.5906,1.5981,1.6026,1.604,1.6098,1.61,1.614,1.6146,1.6172,1.6253,1.626,0,0,0,1.586,1.5884,1.5906,1.5943,1.5979,1.6009,1.6044,1.606,1.611,1.6068,1.6158,1.6162,1.6178,1.6188,1.6194,1.6206,1.6133,1.6133,1.6133,1.5921,1.5936,1.5992,1.6017,1.6052,1.6087,1.6115,1.6143,1.6149,1.6169,1.6186,1.6233,1.6245,1.6249,1.6263,1.62,1.62,1.62,1.62,1.6,1.6035,1.604,1.6096,1.611,1.6157,1.6192,1.6193,1.6237,1.6223,1.6237,1.6218,1.6256,1.6268,1.6201,1.6201,1.6201,1.6201,1.62,1.6039,1.6059,1.6078,1.613,1.6169,1.6192,1.6233,1.6246,1.6257,1.6272,1.6289,1.6289,1.6288,1.628,1.628,1.628,1.628,1.628,1.6281,1.6072,1.6093,1.6128,1.6168,1.6192,1.6224,1.6258,1.6281,1.631,1.6315,1.6315,1.6316,1.6258,1.6241,1.6283,1.6283,1.6282,1.6282,1.6282,1.6143,1.6128,1.6181,1.6204,1.6252,1.6287,1.6302,1.6348,1.6368,1.6388,1.6386,1.6342,1.6342,1.6338,1.6324,1.6385,1.6385,1.6385,1.6385,1.6174,1.6176,1.6231,1.6267,1.6304,1.6323,1.6378,1.6405,1.6429,1.6442,1.6436,1.6419,1.6415,1.6417,1.6411,1.6399,1.6477,1.6477,1.6477,1.6217,1.6222,1.6269,1.6293,1.6331,1.6361,1.6414,1.6453,1.6478,1.6481,1.6452,1.6448,1.6422,1.6413,1.6414,1.6404,1.6381,0,0]},{"header":{"parameterUnit":"m.s-1","parameterCategory":1,"la1":30.2992,"la2":30.254,"lo1":-89.0895,"lo2":-89.0443,"dy":0.0025,"dx":0.0025,"nx":19,"ny":19,"refTime":"2026-04-16T03:00:00:Z","depth":0,"parameterNumber":3,"parameterNumberName":"V-component_of_WINDS"},"data":[0,0,0,2.075,2.0751,2.08,2.08,2.087,2.087,0,0,0,0,0,0,0,0,0,0,0,2.0742,2.0743,2.075,2.0751,2.08,2.08,2.087,2.087,0,0,0,0,0,0,0,0,0,0,0,2.0742,2.0742,2.0743,2.0751,2.08,2.08,2.0869,2.083,0,0,0,0,0,0,0,0,0,0,2.0781,2.078,2.0742,2.0743,2.0752,2.08,2.08,2.0827,2.0832,2.0851,0,2.0872,0,2.0872,2.0876,2.0876,0,0,0,2.0746,2.0777,2.0784,2.0743,2.0752,2.08,2.0776,2.083,2.0835,2.0858,2.0873,2.0875,2.0874,2.0876,2.0877,2.1009,2.101,0,0,2.0743,2.0754,2.078,2.0788,2.0782,2.0775,2.0778,2.0833,2.085,2.0873,2.0877,2.0875,2.0877,2.0877,2.1008,2.1009,0,0,0,2.0739,2.0752,2.0758,2.0785,2.0793,2.0776,2.078,2.0847,2.0848,2.0877,2.0876,2.0877,2.0878,2.1007,2.1008,2.1061,0,0,0,2.0737,2.075,2.0757,2.0764,2.0793,2.0821,2.0793,2.0844,2.085,2.0875,2.0877,2.0879,2.1006,2.1008,2.1057,2.1084,0,0,0,2.0736,2.0749,2.0759,2.0764,2.0786,2.082,2.0824,2.0846,2.085,2.0876,2.0879,2.1005,2.1007,2.1054,2.1079,2.1121,0,0,0,2.0738,2.0805,2.076,2.0833,2.0786,2.0853,2.0824,2.0873,2.0902,2.0878,2.1006,2.1008,2.1053,2.1076,2.1118,2.1159,2.1177,0,0,2.0828,2.0816,2.0859,2.082,2.0898,2.0845,2.093,2.0946,2.0938,2.0985,2.0988,2.1059,2.1078,2.1121,2.1276,2.129,0,0,0,2.0891,2.0921,2.0939,2.0968,2.0983,2.0996,2.0998,2.1004,2.1043,2.0965,2.1085,2.1097,2.1121,2.114,2.1152,2.1172,2.1018,2.1017,2.1017,2.1033,2.102,2.1088,2.1081,2.1109,2.111,2.1131,2.1138,2.1117,2.1145,2.1159,2.1255,2.1278,2.1287,2.1308,2.118,2.118,2.118,2.118,2.1163,2.1203,2.1173,2.1229,2.1214,2.126,2.1263,2.1246,2.1286,2.1244,2.1264,2.1219,2.1303,2.132,2.1184,2.1184,2.1183,2.1183,2.1182,2.1254,2.1271,2.1278,2.1316,2.1348,2.1337,2.1377,2.1361,2.1347,2.1368,2.138,2.1379,2.1376,2.1375,2.1375,2.1376,2.1376,2.1376,2.1376,2.1347,2.1352,2.1388,2.1408,2.1423,2.1442,2.1442,2.1457,2.1469,2.1454,2.1454,2.143,2.1314,2.1285,2.1381,2.1381,2.138,2.1379,2.1379,2.1483,2.1449,2.1505,2.152,2.1542,2.1573,2.1553,2.1583,2.1593,2.1613,2.1583,2.15,2.1487,2.1477,2.1453,2.1586,2.1586,2.1586,2.1586,2.1559,2.1551,2.1603,2.1629,2.1652,2.164,2.1701,2.1702,2.1697,2.1701,2.168,2.1647,2.1637,2.1629,2.1616,2.1593,2.1759,2.176,2.176,2.1642,2.1635,2.169,2.1686,2.1701,2.1714,2.1771,2.18,2.1788,2.1766,2.1705,2.1697,2.1643,2.1627,2.1604,2.1584,2.1542,0,0]}]]